Time,TemperatureF,DewpointF,PressureIn,WindDirection,WindDirectionDegrees,WindSpeedMPH,WindSpeedGustMPH,Humidity,HourlyPrecipIn,Conditions,Clouds,dailyrainin,SoftwareType,DateUTC
2013-02-16 00:01:00,42.1,37.6,30.23,SSW,198,0.0,0.0,84,0.00,,,0.00,Wunderground v.1.15,2013-02-16 08:01:00,
2013-02-16 00:07:00,41.9,37.4,30.22,SSW,198,0.0,0.0,84,0.00,,,0.00,Wunderground v.1.15,2013-02-16 08:07:00,
2013-02-16 00:13:00,41.8,37.3,30.22,SSW,198,0.0,0.0,84,0.00,,,0.00,Wunderground v.1.15,2013-02-16 08:13:00,
2013-02-16 00:19:00,41.5,37.0,30.22,SSW,198,0.0,0.0,84,0.00,,,0.00,Wunderground v.1.15,2013-02-16 08:19:00,
2013-02-16 00:25:00,41.3,37.1,30.22,SSW,198,0.0,0.0,85,0.00,,,0.00,Wunderground v.1.15,2013-02-16 08:25:00,
2013-02-16 00:31:00,41.2,37.0,30.22,SSW,198,0.0,0.0,85,0.00,,,0.00,Wunderground v.1.15,2013-02-16 08:31:00,
2013-02-16 00:37:00,41.1,36.9,30.22,SSW,198,0.0,0.0,85,0.00,,,0.00,Wunderground v.1.15,2013-02-16 08:37:00,
2013-02-16 00:43:00,41.0,36.8,30.22,SSW,198,0.0,0.0,85,0.00,,,0.00,Wunderground v.1.15,2013-02-16 08:43:00,
2013-02-16 00:49:00,40.9,36.7,30.22,SSW,198,0.0,0.0,85,0.00,,,0.00,Wunderground v.1.15,2013-02-16 08:49:00,
2013-02-16 00:55:00,40.8,36.6,30.22,SSW,198,0.0,0.0,85,0.00,,,0.00,Wunderground v.1.15,2013-02-16 08:55:00,
2013-02-16 01:01:00,40.8,36.9,30.22,SSW,198,0.0,0.0,86,0.00,,,0.00,Wunderground v.1.15,2013-02-16 09:01:00,
2013-02-16 01:07:00,40.8,36.9,30.22,SSW,198,0.0,0.0,86,0.00,,,0.00,Wunderground v.1.15,2013-02-16 09:07:00,
2013-02-16 01:13:00,40.7,36.8,30.22,SSW,198,0.0,0.0,86,0.00,,,0.00,Wunderground v.1.15,2013-02-16 09:13:00,
2013-02-16 01:19:00,40.5,36.6,30.22,SSW,198,0.0,0.0,86,0.00,,,0.00,Wunderground v.1.15,2013-02-16 09:19:00,
2013-02-16 01:25:00,40.3,36.4,30.22,SSW,198,0.0,0.0,86,0.00,,,0.00,Wunderground v.1.15,2013-02-16 09:25:00,
2013-02-16 01:31:00,40.2,36.3,30.22,SSW,198,0.0,0.0,86,0.00,,,0.00,Wunderground v.1.15,2013-02-16 09:31:00,
2013-02-16 01:37:00,40.2,36.3,30.23,SSW,198,0.0,0.0,86,0.00,,,0.00,Wunderground v.1.15,2013-02-16 09:37:00,
2013-02-16 01:43:00,40.1,36.2,30.23,SSW,198,0.0,0.0,86,0.00,,,0.00,Wunderground v.1.15,2013-02-16 09:43:00,
2013-02-16 01:49:00,40.0,36.2,30.23,SSW,198,0.0,0.0,86,0.00,,,0.00,Wunderground v.1.15,2013-02-16 09:49:00,
2013-02-16 01:55:00,39.9,36.1,30.22,SSW,198,0.0,0.0,86,0.00,,,0.00,Wunderground v.1.15,2013-02-16 09:55:00,
2013-02-16 02:01:00,39.8,36.0,30.22,SSW,198,0.0,0.0,86,0.00,,,0.00,Wunderground v.1.15,2013-02-16 10:01:00,
2013-02-16 02:07:00,39.7,35.9,30.22,SSW,198,0.0,0.0,86,0.00,,,0.00,Wunderground v.1.15,2013-02-16 10:07:00,
2013-02-16 02:13:00,39.5,35.7,30.22,SSW,198,0.0,0.0,86,0.00,,,0.00,Wunderground v.1.15,2013-02-16 10:13:00,
2013-02-16 02:19:00,39.5,36.0,30.22,SSW,198,0.0,0.0,87,0.00,,,0.00,Wunderground v.1.15,2013-02-16 10:19:00,
2013-02-16 02:25:00,39.4,35.9,30.21,SSW,198,0.0,0.0,87,0.00,,,0.00,Wunderground v.1.15,2013-02-16 10:25:00,
2013-02-16 02:31:00,39.4,35.9,30.21,SSW,198,0.0,0.0,87,0.00,,,0.00,Wunderground v.1.15,2013-02-16 10:31:00,
2013-02-16 02:37:00,39.3,35.8,30.21,SSW,198,0.0,0.0,87,0.00,,,0.00,Wunderground v.1.15,2013-02-16 10:37:00,
2013-02-16 02:43:00,39.3,35.8,30.20,SSW,198,0.0,0.0,87,0.00,,,0.00,Wunderground v.1.15,2013-02-16 10:43:00,
2013-02-16 02:49:00,39.3,35.8,30.20,SSW,198,0.0,0.0,87,0.00,,,0.00,Wunderground v.1.15,2013-02-16 10:49:00,
2013-02-16 02:55:00,39.3,35.8,30.20,SSW,198,0.0,0.0,87,0.00,,,0.00,Wunderground v.1.15,2013-02-16 10:55:00,
2013-02-16 03:01:00,39.4,35.9,30.20,SSW,198,0.0,0.0,87,0.00,,,0.00,Wunderground v.1.15,2013-02-16 11:01:00,
2013-02-16 03:07:00,39.4,35.9,30.20,SSW,198,0.0,0.0,87,0.00,,,0.00,Wunderground v.1.15,2013-02-16 11:07:00,
2013-02-16 03:13:00,39.3,35.8,30.20,SSW,198,0.0,0.0,87,0.00,,,0.00,Wunderground v.1.15,2013-02-16 11:13:00,
2013-02-16 03:19:00,39.2,35.7,30.20,SSW,198,0.0,0.0,87,0.00,,,0.00,Wunderground v.1.15,2013-02-16 11:19:00,
2013-02-16 03:25:00,39.0,35.5,30.20,SSW,198,0.0,0.0,87,0.00,,,0.00,Wunderground v.1.15,2013-02-16 11:25:00,
2013-02-16 03:31:00,38.9,35.4,30.20,SSW,198,0.0,0.0,87,0.00,,,0.00,Wunderground v.1.15,2013-02-16 11:31:00,
2013-02-16 03:37:00,38.9,35.4,30.20,SSW,198,0.0,0.0,87,0.00,,,0.00,Wunderground v.1.15,2013-02-16 11:37:00,
2013-02-16 03:43:00,38.8,35.3,30.20,SSW,198,0.0,0.0,87,0.00,,,0.00,Wunderground v.1.15,2013-02-16 11:43:00,
2013-02-16 03:49:00,38.8,35.3,30.20,SSW,198,0.0,0.0,87,0.00,,,0.00,Wunderground v.1.15,2013-02-16 11:49:00,
2013-02-16 03:55:00,38.7,35.2,30.19,SSW,198,0.0,0.0,87,0.00,,,0.00,Wunderground v.1.15,2013-02-16 11:55:00,
2013-02-16 04:01:00,38.6,35.4,30.20,SSW,198,0.0,0.0,88,0.00,,,0.00,Wunderground v.1.15,2013-02-16 12:01:00,
2013-02-16 04:07:00,38.5,35.3,30.19,SSW,198,0.0,0.0,88,0.00,,,0.00,Wunderground v.1.15,2013-02-16 12:07:00,
2013-02-16 04:13:00,38.4,34.9,30.19,SSW,198,0.0,0.0,87,0.00,,,0.00,Wunderground v.1.15,2013-02-16 12:13:00,
2013-02-16 04:19:00,38.3,34.8,30.19,SSW,198,0.0,0.0,87,0.00,,,0.00,Wunderground v.1.15,2013-02-16 12:19:00,
2013-02-16 04:25:00,38.2,35.0,30.19,SSW,198,0.0,0.0,88,0.00,,,0.00,Wunderground v.1.15,2013-02-16 12:25:00,
2013-02-16 04:31:00,38.1,34.9,30.19,SSW,198,0.0,0.0,88,0.00,,,0.00,Wunderground v.1.15,2013-02-16 12:31:00,
2013-02-16 04:37:00,38.0,34.8,30.19,SSW,198,0.0,0.0,88,0.00,,,0.00,Wunderground v.1.15,2013-02-16 12:37:00,
2013-02-16 04:43:00,38.0,34.8,30.19,SSW,198,0.0,0.0,88,0.00,,,0.00,Wunderground v.1.15,2013-02-16 12:43:00,
2013-02-16 04:49:00,38.0,34.8,30.19,SSW,198,0.0,0.0,88,0.00,,,0.00,Wunderground v.1.15,2013-02-16 12:49:00,
2013-02-16 04:55:00,37.9,34.7,30.19,SSW,198,0.0,0.0,88,0.00,,,0.00,Wunderground v.1.15,2013-02-16 12:55:00,
2013-02-16 05:01:00,37.9,34.7,30.19,SSW,198,0.0,0.0,88,0.00,,,0.00,Wunderground v.1.15,2013-02-16 13:01:00,
2013-02-16 05:07:00,38.0,34.8,30.19,SSW,198,0.0,0.0,88,0.00,,,0.00,Wunderground v.1.15,2013-02-16 13:07:00,
2013-02-16 05:13:00,38.0,34.8,30.19,SSW,198,0.0,0.0,88,0.00,,,0.00,Wunderground v.1.15,2013-02-16 13:13:00,
2013-02-16 05:19:00,37.9,34.7,30.19,SSW,198,0.0,0.0,88,0.00,,,0.00,Wunderground v.1.15,2013-02-16 13:19:00,
2013-02-16 05:25:00,37.8,34.6,30.19,SSW,198,0.0,0.0,88,0.00,,,0.00,Wunderground v.1.15,2013-02-16 13:25:00,
2013-02-16 05:31:00,37.7,34.5,30.19,SSW,198,0.0,0.0,88,0.00,,,0.00,Wunderground v.1.15,2013-02-16 13:31:00,
2013-02-16 05:37:00,37.7,34.5,30.18,SSW,198,0.0,0.0,88,0.00,,,0.00,Wunderground v.1.15,2013-02-16 13:37:00,
2013-02-16 05:43:00,37.8,34.6,30.18,SSW,198,0.0,0.0,88,0.00,,,0.00,Wunderground v.1.15,2013-02-16 13:43:00,
2013-02-16 05:49:00,37.9,34.7,30.18,SSW,198,0.0,0.0,88,0.00,,,0.00,Wunderground v.1.15,2013-02-16 13:49:00,
2013-02-16 05:55:00,37.9,34.7,30.18,SSW,198,0.0,0.0,88,0.00,,,0.00,Wunderground v.1.15,2013-02-16 13:55:00,
2013-02-16 06:01:00,37.9,34.7,30.19,SSW,198,0.0,0.0,88,0.00,,,0.00,Wunderground v.1.15,2013-02-16 14:01:00,
2013-02-16 06:07:00,37.9,34.7,30.19,SSW,198,0.0,0.0,88,0.00,,,0.00,Wunderground v.1.15,2013-02-16 14:07:00,
2013-02-16 06:13:00,37.8,34.6,30.19,SSW,198,0.0,0.0,88,0.00,,,0.00,Wunderground v.1.15,2013-02-16 14:13:00,
2013-02-16 06:30:00,37.5,34.3,30.18,SSW,198,0.0,0.0,88,0.00,,,0.00,Wunderground v.1.15,2013-02-16 14:30:00,
2013-02-16 06:36:00,37.4,34.2,30.18,SSW,198,0.0,0.0,88,0.00,,,0.00,Wunderground v.1.15,2013-02-16 14:36:00,
2013-02-16 06:42:00,37.4,34.2,30.18,SSW,198,0.0,0.0,88,0.00,,,0.00,Wunderground v.1.15,2013-02-16 14:42:00,
2013-02-16 06:47:00,37.4,34.2,30.18,SSW,198,0.0,0.0,88,0.00,,,0.00,Wunderground v.1.15,2013-02-16 14:47:00,
2013-02-16 06:53:00,37.3,34.1,30.18,SSW,198,0.0,0.0,88,0.00,,,0.00,Wunderground v.1.15,2013-02-16 14:53:00,
2013-02-16 06:59:00,37.3,34.4,30.18,SSW,198,0.0,0.0,89,0.00,,,0.00,Wunderground v.1.15,2013-02-16 14:59:00,
2013-02-16 07:06:00,37.2,34.3,30.19,SSW,198,0.0,0.0,89,0.00,,,0.00,Wunderground v.1.15,2013-02-16 15:06:00,
2013-02-16 07:12:00,37.3,34.4,30.19,SSW,198,0.0,0.0,89,0.00,,,0.00,Wunderground v.1.15,2013-02-16 15:12:00,
2013-02-16 07:18:00,37.4,34.5,30.19,SSW,198,0.0,0.0,89,0.00,,,0.00,Wunderground v.1.15,2013-02-16 15:18:00,
2013-02-16 07:24:00,37.4,34.5,30.19,SSW,198,0.0,0.0,89,0.00,,,0.00,Wunderground v.1.15,2013-02-16 15:24:00,
2013-02-16 07:29:00,37.6,34.7,30.19,SSW,198,0.0,0.0,89,0.00,,,0.00,Wunderground v.1.15,2013-02-16 15:29:00,
2013-02-16 07:36:00,37.9,34.9,30.19,SSW,198,0.0,0.0,89,0.00,,,0.00,Wunderground v.1.15,2013-02-16 15:36:00,
2013-02-16 07:42:00,38.1,35.1,30.19,SSW,198,0.0,0.0,89,0.00,,,0.00,Wunderground v.1.15,2013-02-16 15:42:00,
2013-02-16 07:47:00,38.5,35.5,30.19,SSW,198,0.0,0.0,89,0.00,,,0.00,Wunderground v.1.15,2013-02-16 15:47:00,
2013-02-16 07:53:00,38.9,35.9,30.19,SSW,198,0.0,0.0,89,0.00,,,0.00,Wunderground v.1.15,2013-02-16 15:53:00,
2013-02-16 07:59:00,39.3,36.3,30.19,SSW,198,0.0,0.0,89,0.00,,,0.00,Wunderground v.1.15,2013-02-16 15:59:00,
2013-02-16 08:06:00,39.8,36.8,30.19,SSW,198,0.0,0.0,89,0.00,,,0.00,Wunderground v.1.15,2013-02-16 16:06:00,
2013-02-16 08:11:00,40.5,37.5,30.19,SSW,198,0.0,0.0,89,0.00,,,0.00,Wunderground v.1.15,2013-02-16 16:11:00,
2013-02-16 08:17:00,41.1,38.1,30.19,SSW,198,0.0,0.0,89,0.00,,,0.00,Wunderground v.1.15,2013-02-16 16:17:00,
2013-02-16 08:23:00,41.6,38.9,30.19,SSW,198,0.0,0.0,90,0.00,,,0.00,Wunderground v.1.15,2013-02-16 16:23:00,
2013-02-16 08:29:00,42.2,39.5,30.19,SSW,198,0.0,0.0,90,0.00,,,0.00,Wunderground v.1.15,2013-02-16 16:29:00,
2013-02-16 08:36:00,42.8,40.1,30.19,SSW,198,0.0,0.0,90,0.00,,,0.00,Wunderground v.1.15,2013-02-16 16:36:00,
2013-02-16 08:41:00,43.3,40.6,30.19,SSW,198,0.0,0.0,90,0.00,,,0.00,Wunderground v.1.15,2013-02-16 16:41:00,
2013-02-16 08:47:00,43.9,41.2,30.19,SSW,198,0.0,0.0,90,0.00,,,0.00,Wunderground v.1.15,2013-02-16 16:47:00,
2013-02-16 08:54:00,44.7,41.9,30.19,SSW,198,0.0,0.0,90,0.00,,,0.00,Wunderground v.1.15,2013-02-16 16:54:00,
2013-02-16 09:00:00,45.6,42.5,30.19,SSW,198,0.0,0.0,89,0.00,,,0.00,Wunderground v.1.15,2013-02-16 17:00:00,
2013-02-16 09:06:00,46.6,43.5,30.19,SSW,198,0.0,0.0,89,0.00,,,0.00,Wunderground v.1.15,2013-02-16 17:06:00,
2013-02-16 09:11:00,47.3,43.9,30.19,SSW,198,0.0,0.0,88,0.00,,,0.00,Wunderground v.1.15,2013-02-16 17:11:00,
2013-02-16 09:17:00,48.1,44.1,30.19,SSW,198,0.0,0.0,86,0.00,,,0.00,Wunderground v.1.15,2013-02-16 17:17:00,
2013-02-16 09:23:00,48.8,44.2,30.18,SSW,198,0.0,0.0,84,0.00,,,0.00,Wunderground v.1.15,2013-02-16 17:23:00,
2013-02-16 09:29:00,49.4,44.1,30.18,SSW,198,0.0,0.0,82,0.00,,,0.00,Wunderground v.1.15,2013-02-16 17:29:00,
2013-02-16 09:36:00,50.0,43.7,30.18,SSW,196,0.0,0.0,79,0.00,,,0.00,Wunderground v.1.15,2013-02-16 17:36:00,
2013-02-16 09:41:00,50.6,44.0,30.18,SSW,196,0.0,0.0,78,0.00,,,0.00,Wunderground v.1.15,2013-02-16 17:41:00,
2013-02-16 09:47:00,51.1,43.8,30.18,SSW,196,0.0,0.0,76,0.00,,,0.00,Wunderground v.1.15,2013-02-16 17:47:00,
2013-02-16 09:53:00,51.7,43.7,30.18,SSW,196,0.0,0.0,74,0.00,,,0.00,Wunderground v.1.15,2013-02-16 17:53:00,
2013-02-16 09:59:00,52.4,44.7,30.18,SSW,196,0.0,0.0,75,0.00,,,0.00,Wunderground v.1.15,2013-02-16 17:59:00,
2013-02-16 10:06:00,53.2,44.8,30.18,SSW,196,0.0,0.0,73,0.00,,,0.00,Wunderground v.1.15,2013-02-16 18:06:00,
2013-02-16 10:11:00,53.9,45.1,30.18,SSW,196,0.0,0.0,72,0.00,,,0.00,Wunderground v.1.15,2013-02-16 18:11:00,
2013-02-16 10:17:00,54.5,44.5,30.18,SSW,196,0.0,0.0,69,0.00,,,0.00,Wunderground v.1.15,2013-02-16 18:17:00,
2013-02-16 10:23:00,55.3,44.1,30.17,SSW,196,0.0,0.0,66,0.00,,,0.00,Wunderground v.1.15,2013-02-16 18:23:00,
2013-02-16 10:30:00,56.2,42.5,30.17,SSW,196,0.0,0.0,60,0.00,,,0.00,Wunderground v.1.15,2013-02-16 18:30:00,
2013-02-16 10:36:00,57.4,43.6,30.17,SSW,196,0.0,0.0,60,0.00,,,0.00,Wunderground v.1.15,2013-02-16 18:36:00,
2013-02-16 10:41:00,58.7,43.5,30.17,SSW,199,0.0,0.0,57,0.00,,,0.00,Wunderground v.1.15,2013-02-16 18:41:00,
2013-02-16 10:47:00,59.5,45.2,30.17,SSW,198,0.0,0.0,59,0.00,,,0.00,Wunderground v.1.15,2013-02-16 18:47:00,
2013-02-16 10:54:00,61.3,47.3,30.16,SSW,198,0.0,0.0,60,0.00,,,0.00,Wunderground v.1.15,2013-02-16 18:54:00,
2013-02-16 10:59:00,62.4,45.0,30.16,South,191,0.0,0.0,53,0.00,,,0.00,Wunderground v.1.15,2013-02-16 18:59:00,
2013-02-16 11:06:00,63.0,45.1,30.16,North,5,0.0,0.0,52,0.00,,,0.00,Wunderground v.1.15,2013-02-16 19:06:00,
2013-02-16 11:11:00,63.2,45.3,30.16,North,5,0.0,0.0,52,0.00,,,0.00,Wunderground v.1.15,2013-02-16 19:11:00,
2013-02-16 11:17:00,63.3,44.3,30.16,North,5,0.0,1.0,50,0.00,,,0.00,Wunderground v.1.15,2013-02-16 19:17:00,
2013-02-16 11:23:00,63.8,45.8,30.15,North,5,0.0,0.0,52,0.00,,,0.00,Wunderground v.1.15,2013-02-16 19:23:00,
2013-02-16 11:29:00,64.2,44.1,30.15,North,5,0.0,0.0,48,0.00,,,0.00,Wunderground v.1.15,2013-02-16 19:29:00,
2013-02-16 11:36:00,64.7,45.1,30.15,North,5,0.0,0.0,49,0.00,,,0.00,Wunderground v.1.15,2013-02-16 19:36:00,
2013-02-16 11:41:00,65.1,43.8,30.15,North,5,0.0,1.0,46,0.00,,,0.00,Wunderground v.1.15,2013-02-16 19:41:00,
2013-02-16 11:47:00,65.5,45.8,30.14,North,5,0.0,1.0,49,0.00,,,0.00,Wunderground v.1.15,2013-02-16 19:47:00,
2013-02-16 11:53:00,66.1,46.9,30.14,North,5,0.0,0.0,50,0.00,,,0.00,Wunderground v.1.15,2013-02-16 19:53:00,
2013-02-16 11:59:00,66.7,45.3,30.13,North,5,0.0,0.0,46,0.00,,,0.00,Wunderground v.1.15,2013-02-16 19:59:00,
2013-02-16 12:06:00,66.8,45.9,30.13,North,5,0.0,0.0,47,0.00,,,0.00,Wunderground v.1.15,2013-02-16 20:06:00,
2013-02-16 12:11:00,67.3,41.5,30.13,North,5,0.0,0.0,39,0.00,,,0.00,Wunderground v.1.15,2013-02-16 20:11:00,
2013-02-16 12:17:00,67.7,43.1,30.13,North,5,0.0,0.0,41,0.00,,,0.00,Wunderground v.1.15,2013-02-16 20:17:00,
2013-02-16 12:23:00,68.1,44.7,30.12,North,5,0.0,0.0,43,0.00,,,0.00,Wunderground v.1.15,2013-02-16 20:23:00,
2013-02-16 12:29:00,68.5,45.1,30.11,North,5,0.0,0.0,43,0.00,,,0.00,Wunderground v.1.15,2013-02-16 20:29:00,
2013-02-16 12:36:00,69.0,44.9,30.11,North,5,0.0,1.0,42,0.00,,,0.00,Wunderground v.1.15,2013-02-16 20:36:00,
2013-02-16 12:41:00,69.1,43.8,30.11,North,5,0.0,0.0,40,0.00,,,0.00,Wunderground v.1.15,2013-02-16 20:41:00,
2013-02-16 12:47:00,69.3,43.3,30.11,North,5,0.0,0.0,39,0.00,,,0.00,Wunderground v.1.15,2013-02-16 20:47:00,
2013-02-16 12:53:00,69.5,44.1,30.10,North,5,0.0,0.0,40,0.00,,,0.00,Wunderground v.1.15,2013-02-16 20:53:00,
2013-02-16 12:59:00,69.8,45.0,30.10,North,5,0.0,0.0,41,0.00,,,0.00,Wunderground v.1.15,2013-02-16 20:59:00,
2013-02-16 13:05:00,70.2,44.7,30.10,North,5,0.0,0.0,40,0.00,,,0.00,Wunderground v.1.15,2013-02-16 21:05:00,
2013-02-16 13:11:00,70.7,44.5,30.10,North,5,0.0,0.0,39,0.00,,,0.00,Wunderground v.1.15,2013-02-16 21:11:00,
2013-02-16 13:17:00,71.4,44.5,30.09,North,5,0.0,1.0,38,0.00,,,0.00,Wunderground v.1.15,2013-02-16 21:17:00,
2013-02-16 13:23:00,72.4,44.6,30.09,North,5,0.0,0.0,37,0.00,,,0.00,Wunderground v.1.15,2013-02-16 21:23:00,
2013-02-16 13:29:00,72.7,41.9,30.09,North,10,0.0,0.0,33,0.00,,,0.00,Wunderground v.1.15,2013-02-16 21:29:00,
2013-02-16 13:35:00,72.4,42.4,30.08,North,10,0.0,0.0,34,0.00,,,0.00,Wunderground v.1.15,2013-02-16 21:35:00,
2013-02-16 13:41:00,72.0,44.3,30.08,North,10,0.0,0.0,37,0.00,,,0.00,Wunderground v.1.15,2013-02-16 21:41:00,
2013-02-16 13:47:00,71.7,44.7,30.08,SSE,167,0.0,0.0,38,0.00,,,0.00,Wunderground v.1.15,2013-02-16 21:47:00,
2013-02-16 13:53:00,72.2,45.9,30.07,SSE,167,0.0,0.0,39,0.00,,,0.00,Wunderground v.1.15,2013-02-16 21:53:00,
2013-02-16 13:59:00,73.2,45.4,30.07,SSE,167,0.0,0.0,37,0.00,,,0.00,Wunderground v.1.15,2013-02-16 21:59:00,
2013-02-16 14:05:00,74.5,47.2,30.07,SSE,167,0.0,0.0,38,0.00,,,0.00,Wunderground v.1.15,2013-02-16 22:05:00,
2013-02-16 14:11:00,75.3,47.9,30.06,SSE,167,0.0,0.0,38,0.00,,,0.00,Wunderground v.1.15,2013-02-16 22:11:00,
2013-02-16 14:17:00,75.9,47.0,30.06,SSE,167,0.0,0.0,36,0.00,,,0.00,Wunderground v.1.15,2013-02-16 22:17:00,
2013-02-16 14:23:00,75.8,46.9,30.06,SSE,167,0.0,0.0,36,0.00,,,0.00,Wunderground v.1.15,2013-02-16 22:23:00,
2013-02-16 14:29:00,75.8,48.4,30.06,SSE,167,0.0,0.0,38,0.00,,,0.00,Wunderground v.1.15,2013-02-16 22:29:00,
2013-02-16 14:35:00,76.2,48.0,30.05,SSE,156,0.0,0.0,37,0.00,,,0.00,Wunderground v.1.15,2013-02-16 22:35:00,
2013-02-16 14:41:00,76.4,48.2,30.05,SSE,156,0.0,0.0,37,0.00,,,0.00,Wunderground v.1.15,2013-02-16 22:41:00,
2013-02-16 14:47:00,76.6,48.4,30.05,SSE,157,0.0,0.0,37,0.00,,,0.00,Wunderground v.1.15,2013-02-16 22:47:00,
2013-02-16 14:53:00,76.8,48.6,30.05,SSE,157,0.0,0.0,37,0.00,,,0.00,Wunderground v.1.15,2013-02-16 22:53:00,
2013-02-16 14:59:00,77.0,48.0,30.05,SSE,158,0.0,0.0,36,0.00,,,0.00,Wunderground v.1.15,2013-02-16 22:59:00,
2013-02-16 15:05:00,76.8,48.6,30.05,SSE,158,0.0,0.0,37,0.00,,,0.00,Wunderground v.1.15,2013-02-16 23:05:00,
2013-02-16 15:11:00,76.5,47.6,30.05,SSE,159,0.0,0.0,36,0.00,,,0.00,Wunderground v.1.15,2013-02-16 23:11:00,
2013-02-16 15:17:00,76.8,47.8,30.05,SSE,159,0.0,0.0,36,0.00,,,0.00,Wunderground v.1.15,2013-02-16 23:17:00,
2013-02-16 15:23:00,77.1,48.1,30.04,SSE,159,0.0,0.0,36,0.00,,,0.00,Wunderground v.1.15,2013-02-16 23:23:00,
2013-02-16 15:29:00,77.2,47.4,30.04,SSE,160,0.0,0.0,35,0.00,,,0.00,Wunderground v.1.15,2013-02-16 23:29:00,
2013-02-16 15:35:00,76.9,47.9,30.04,ENE,69,0.0,0.0,36,0.00,,,0.00,Wunderground v.1.15,2013-02-16 23:35:00,
2013-02-16 15:41:00,76.8,47.8,30.04,SSE,161,0.0,0.0,36,0.00,,,0.00,Wunderground v.1.15,2013-02-16 23:41:00,
2013-02-16 15:47:00,76.7,48.5,30.04,South,182,0.0,0.0,37,0.00,,,0.00,Wunderground v.1.15,2013-02-16 23:47:00,
2013-02-16 15:53:00,76.4,48.2,30.04,South,182,0.0,0.0,37,0.00,,,0.00,Wunderground v.1.15,2013-02-16 23:53:00,
2013-02-16 15:59:00,75.8,49.1,30.04,South,182,0.0,0.0,39,0.00,,,0.00,Wunderground v.1.15,2013-02-16 23:59:00,
2013-02-16 16:05:00,74.9,48.3,30.04,South,189,0.0,0.0,39,0.00,,,0.00,Wunderground v.1.15,2013-02-17 00:05:00,
2013-02-16 16:11:00,73.9,48.7,30.04,South,172,0.0,0.0,41,0.00,,,0.00,Wunderground v.1.15,2013-02-17 00:11:00,
2013-02-16 16:17:00,72.7,48.3,30.04,South,172,0.0,0.0,42,0.00,,,0.00,Wunderground v.1.15,2013-02-17 00:17:00,
2013-02-16 16:23:00,71.5,48.4,30.04,South,172,0.0,0.0,44,0.00,,,0.00,Wunderground v.1.15,2013-02-17 00:23:00,
2013-02-16 16:29:00,70.5,48.1,30.04,South,182,0.0,0.0,45,0.00,,,0.00,Wunderground v.1.15,2013-02-17 00:29:00,
2013-02-16 16:35:00,69.6,48.5,30.03,South,182,0.0,0.0,47,0.00,,,0.00,Wunderground v.1.15,2013-02-17 00:35:00,
2013-02-16 16:41:00,69.0,48.5,30.03,South,182,0.0,0.0,48,0.00,,,0.00,Wunderground v.1.15,2013-02-17 00:41:00,
2013-02-16 16:47:00,68.4,48.5,30.03,South,182,0.0,0.0,49,0.00,,,0.00,Wunderground v.1.15,2013-02-17 00:47:00,
2013-02-16 16:53:00,67.9,48.6,30.03,South,182,0.0,0.0,50,0.00,,,0.00,Wunderground v.1.15,2013-02-17 00:53:00,
2013-02-16 16:59:00,67.4,48.6,30.03,South,182,0.0,0.0,51,0.00,,,0.00,Wunderground v.1.15,2013-02-17 00:59:00,
2013-02-16 17:05:00,66.9,48.7,30.03,South,182,0.0,0.0,52,0.00,,,0.00,Wunderground v.1.15,2013-02-17 01:05:00,
2013-02-16 17:11:00,66.5,48.8,30.03,South,182,0.0,0.0,53,0.00,,,0.00,Wunderground v.1.15,2013-02-17 01:11:00,
2013-02-16 17:17:00,65.9,49.3,30.03,South,182,0.0,0.0,55,0.00,,,0.00,Wunderground v.1.15,2013-02-17 01:17:00,
2013-02-16 17:23:00,65.0,48.9,30.03,South,182,0.0,0.0,56,0.00,,,0.00,Wunderground v.1.15,2013-02-17 01:23:00,
2013-02-16 17:29:00,64.1,48.5,30.03,South,182,0.0,0.0,57,0.00,,,0.00,Wunderground v.1.15,2013-02-17 01:29:00,
2013-02-16 17:35:00,63.2,48.2,30.03,South,182,0.0,0.0,58,0.00,,,0.00,Wunderground v.1.15,2013-02-17 01:35:00,
2013-02-16 17:41:00,62.3,47.8,30.03,South,182,0.0,0.0,59,0.00,,,0.00,Wunderground v.1.15,2013-02-17 01:41:00,
2013-02-16 17:47:00,61.3,47.3,30.03,South,182,0.0,0.0,60,0.00,,,0.00,Wunderground v.1.15,2013-02-17 01:47:00,
2013-02-16 17:53:00,60.4,46.9,30.03,South,182,0.0,0.0,61,0.00,,,0.00,Wunderground v.1.15,2013-02-17 01:53:00,
2013-02-16 17:59:00,59.3,45.8,30.03,South,182,0.0,0.0,61,0.00,,,0.00,Wunderground v.1.15,2013-02-17 01:59:00,
2013-02-16 18:05:00,58.5,45.5,30.03,South,182,0.0,0.0,62,0.00,,,0.00,Wunderground v.1.15,2013-02-17 02:05:00,
2013-02-16 18:11:00,57.7,45.2,30.03,South,182,0.0,0.0,63,0.00,,,0.00,Wunderground v.1.15,2013-02-17 02:11:00,
2013-02-16 18:17:00,56.9,44.8,30.03,South,182,0.0,0.0,64,0.00,,,0.00,Wunderground v.1.15,2013-02-17 02:17:00,
2013-02-16 18:23:00,56.2,44.2,30.03,South,182,0.0,0.0,64,0.00,,,0.00,Wunderground v.1.15,2013-02-17 02:23:00,
2013-02-16 18:29:00,55.5,43.9,30.03,South,182,0.0,0.0,65,0.00,,,0.00,Wunderground v.1.15,2013-02-17 02:29:00,
2013-02-16 18:35:00,55.0,43.8,30.03,South,182,0.0,0.0,66,0.00,,,0.00,Wunderground v.1.15,2013-02-17 02:35:00,
2013-02-16 18:41:00,54.4,43.7,30.03,South,182,0.0,0.0,67,0.00,,,0.00,Wunderground v.1.15,2013-02-17 02:41:00,
2013-02-16 18:47:00,53.9,43.6,30.04,South,182,0.0,0.0,68,0.00,,,0.00,Wunderground v.1.15,2013-02-17 02:47:00,
2013-02-16 18:53:00,53.4,43.5,30.03,South,182,0.0,0.0,69,0.00,,,0.00,Wunderground v.1.15,2013-02-17 02:53:00,
2013-02-16 18:59:00,52.9,43.4,30.04,South,182,0.0,0.0,70,0.00,,,0.00,Wunderground v.1.15,2013-02-17 02:59:00,
2013-02-16 19:05:00,52.4,42.9,30.03,South,182,0.0,0.0,70,0.00,,,0.00,Wunderground v.1.15,2013-02-17 03:05:00,
2013-02-16 19:11:00,52.0,43.3,30.03,South,182,0.0,0.0,72,0.00,,,0.00,Wunderground v.1.15,2013-02-17 03:11:00,
2013-02-16 19:17:00,51.6,42.9,30.03,South,182,0.0,0.0,72,0.00,,,0.00,Wunderground v.1.15,2013-02-17 03:17:00,
2013-02-16 19:23:00,51.2,42.8,30.03,South,182,0.0,0.0,73,0.00,,,0.00,Wunderground v.1.15,2013-02-17 03:23:00,
2013-02-16 19:29:00,50.9,42.9,30.03,South,182,0.0,0.0,74,0.00,,,0.00,Wunderground v.1.15,2013-02-17 03:29:00,
2013-02-16 19:35:00,50.6,42.6,30.03,South,182,0.0,0.0,74,0.00,,,0.00,Wunderground v.1.15,2013-02-17 03:35:00,
2013-02-16 19:41:00,50.3,42.3,30.03,South,182,0.0,0.0,74,0.00,,,0.00,Wunderground v.1.15,2013-02-17 03:41:00,
2013-02-16 19:47:00,50.0,42.0,30.03,South,182,0.0,0.0,74,0.00,,,0.00,Wunderground v.1.15,2013-02-17 03:47:00,
2013-02-16 19:53:00,49.8,42.2,30.04,South,182,0.0,0.0,75,0.00,,,0.00,Wunderground v.1.15,2013-02-17 03:53:00,
2013-02-16 19:59:00,49.5,41.9,30.03,South,182,0.0,0.0,75,0.00,,,0.00,Wunderground v.1.15,2013-02-17 03:59:00,
2013-02-16 20:05:00,49.2,42.0,30.03,South,182,0.0,0.0,76,0.00,,,0.00,Wunderground v.1.15,2013-02-17 04:05:00,
2013-02-16 20:11:00,48.9,41.7,30.03,South,182,0.0,0.0,76,0.00,,,0.00,Wunderground v.1.15,2013-02-17 04:11:00,
2013-02-16 20:17:00,48.6,41.7,30.03,South,182,0.0,0.0,77,0.00,,,0.00,Wunderground v.1.15,2013-02-17 04:17:00,
2013-02-16 20:23:00,48.3,41.4,30.03,South,182,0.0,0.0,77,0.00,,,0.00,Wunderground v.1.15,2013-02-17 04:23:00,
2013-02-16 20:29:00,48.0,41.1,30.03,South,182,0.0,0.0,77,0.00,,,0.00,Wunderground v.1.15,2013-02-17 04:29:00,
2013-02-16 20:35:00,47.8,40.9,30.03,South,182,0.0,0.0,77,0.00,,,0.00,Wunderground v.1.15,2013-02-17 04:35:00,
2013-02-16 20:41:00,47.4,40.9,30.03,South,182,0.0,0.0,78,0.00,,,0.00,Wunderground v.1.15,2013-02-17 04:41:00,
2013-02-16 20:47:00,47.2,40.7,30.03,South,182,0.0,0.0,78,0.00,,,0.00,Wunderground v.1.15,2013-02-17 04:47:00,
2013-02-16 20:53:00,47.0,40.8,30.03,South,182,0.0,0.0,79,0.00,,,0.00,Wunderground v.1.15,2013-02-17 04:53:00,
2013-02-16 20:59:00,46.8,40.6,30.03,South,182,0.0,0.0,79,0.00,,,0.00,Wunderground v.1.15,2013-02-17 04:59:00,
2013-02-16 21:01:00,46.7,40.9,30.03,South,182,0.0,0.0,80,0.00,,,0.00,Wunderground v.1.15,2013-02-17 05:01:00,
2013-02-16 21:05:00,46.5,40.7,30.03,South,182,0.0,0.0,80,0.00,,,0.00,Wunderground v.1.15,2013-02-17 05:05:00,
2013-02-16 21:07:00,46.4,40.6,30.03,South,182,0.0,0.0,80,0.00,,,0.00,Wunderground v.1.15,2013-02-17 05:07:00,
2013-02-16 21:13:00,46.1,40.3,30.03,South,182,0.0,0.0,80,0.00,,,0.00,Wunderground v.1.15,2013-02-17 05:13:00,
2013-02-16 21:15:00,46.0,40.2,30.03,South,182,0.0,0.0,80,0.00,,,0.00,Wunderground v.1.15,2013-02-17 05:15:00,
2013-02-16 21:21:00,45.7,39.9,30.03,South,182,0.0,0.0,80,0.00,,,0.00,Wunderground v.1.15,2013-02-17 05:21:00,
2013-02-16 21:27:00,45.4,39.6,30.03,South,182,0.0,0.0,80,0.00,,,0.00,Wunderground v.1.15,2013-02-17 05:27:00,
2013-02-16 21:33:00,45.2,39.7,30.03,South,182,0.0,0.0,81,0.00,,,0.00,Wunderground v.1.15,2013-02-17 05:33:00,
2013-02-16 21:39:00,45.6,40.1,30.03,WNW,294,0.0,0.0,81,0.00,,,0.00,Wunderground v.1.15,2013-02-17 05:39:00,
2013-02-16 21:45:00,45.8,40.3,30.03,WNW,294,0.0,0.0,81,0.00,,,0.00,Wunderground v.1.15,2013-02-17 05:45:00,
2013-02-16 21:51:00,46.0,40.5,30.03,WNW,294,0.0,0.0,81,0.00,,,0.00,Wunderground v.1.15,2013-02-17 05:51:00,
2013-02-16 21:57:00,46.0,40.5,30.03,WNW,294,0.0,0.0,81,0.00,,,0.00,Wunderground v.1.15,2013-02-17 05:57:00,
2013-02-16 22:03:00,45.9,40.4,30.03,WNW,294,0.0,0.0,81,0.00,,,0.00,Wunderground v.1.15,2013-02-17 06:03:00,
2013-02-16 22:09:00,45.6,39.8,30.03,WNW,294,0.0,0.0,80,0.00,,,0.00,Wunderground v.1.15,2013-02-17 06:09:00,
2013-02-16 22:15:00,45.3,39.8,30.03,WNW,294,0.0,0.0,81,0.00,,,0.00,Wunderground v.1.15,2013-02-17 06:15:00,
2013-02-16 22:21:00,45.0,39.5,30.03,WNW,294,0.0,0.0,81,0.00,,,0.00,Wunderground v.1.15,2013-02-17 06:21:00,
2013-02-16 22:27:00,44.7,39.2,30.03,WNW,294,0.0,0.0,81,0.00,,,0.00,Wunderground v.1.15,2013-02-17 06:27:00,
2013-02-16 22:32:00,44.5,39.0,30.03,WNW,294,0.0,0.0,81,0.00,,,0.00,Wunderground v.1.15,2013-02-17 06:32:00,
2013-02-16 22:38:00,44.3,39.2,30.02,WNW,294,0.0,0.0,82,0.00,,,0.00,Wunderground v.1.15,2013-02-17 06:38:00,
2013-02-16 22:46:00,43.9,38.4,30.02,WNW,294,0.0,0.0,81,0.00,,,0.00,Wunderground v.1.15,2013-02-17 06:46:00,
2013-02-16 22:52:00,43.6,38.5,30.02,WNW,294,0.0,0.0,82,0.00,,,0.00,Wunderground v.1.15,2013-02-17 06:52:00,
2013-02-16 22:59:00,43.4,38.3,30.02,WNW,294,0.0,0.0,82,0.00,,,0.00,Wunderground v.1.15,2013-02-17 06:59:00,
2013-02-16 23:05:00,43.2,38.1,30.02,WNW,294,0.0,0.0,82,0.00,,,0.00,Wunderground v.1.15,2013-02-17 07:05:00,
2013-02-16 23:11:00,42.9,37.8,30.02,WNW,294,0.0,0.0,82,0.00,,,0.00,Wunderground v.1.15,2013-02-17 07:11:00,
2013-02-16 23:16:00,42.7,37.6,30.02,WNW,294,0.0,0.0,82,0.00,,,0.00,Wunderground v.1.15,2013-02-17 07:16:00,
2013-02-16 23:22:00,42.5,37.7,30.02,WNW,294,0.0,0.0,83,0.00,,,0.00,Wunderground v.1.15,2013-02-17 07:22:00,
2013-02-16 23:27:00,42.2,37.4,30.02,WNW,294,0.0,0.0,83,0.00,,,0.00,Wunderground v.1.15,2013-02-17 07:27:00,
2013-02-16 23:34:00,41.9,37.1,30.01,WNW,294,0.0,0.0,83,0.00,,,0.00,Wunderground v.1.15,2013-02-17 07:34:00,
2013-02-16 23:40:00,41.7,36.9,30.01,WNW,294,0.0,0.0,83,0.00,,,0.00,Wunderground v.1.15,2013-02-17 07:40:00,
2013-02-16 23:46:00,41.4,36.6,30.02,WNW,294,0.0,0.0,83,0.00,,,0.00,Wunderground v.1.15,2013-02-17 07:46:00,
2013-02-16 23:52:00,41.1,36.3,30.02,WNW,294,0.0,0.0,83,0.00,,,0.00,Wunderground v.1.15,2013-02-17 07:52:00,
2013-02-16 23:58:00,40.9,36.4,30.02,WNW,294,0.0,0.0,84,0.00,,,0.00,Wunderground v.1.15,2013-02-17 07:58:00,